Flag for Australia Weather past 2 weeks in Melbourne, Victoria, Australia

Now
46 °F

Passing clouds.


Feels Like: 40 °F
Forecast: 46 / 53 °F
Wind: 14 mph from Southwest

Location: Melbourne Airport

Current Time: Aug 29, 2015 at 11:09:46 PM

Latest Report: Aug 29, 2015 at 10:30 PM


Visibility: N/A

Pressure: 30.27 "Hg

Humidity: 93%

Dew point: 45 °F

Location of MelbourneLocation

Historic Weather in Melbourne — Graph

°F

Melbourne temperature yesterday

Maximum temperature yesterday: 54 °F (at 12:30 PM)
Minimum temperature yesterday: 41 °F (at 11:00 PM)
Average temperature yesterday: 47 °F

Past Weeks' High & Low Weather Summary

 TemperatureHumidityPressure
High64 °F (Aug 22, 12:00 PM)100% (Aug 15, 5:00 AM)30.48 "Hg (Aug 15, 5:00 AM)
Low39 °F (Aug 16, 2:00 AM)39% (Aug 21, 12:30 PM)29.89 "Hg (Aug 21, 6:30 PM)
Average50 °F74%30.19 "Hg
* Reported Aug 14 9:00 PM — Aug 29 9:30 PM, Melbourne, Weather by CustomWeather, © 2015

Note: Actual official high and low records may vary slightly from our data, if they occured in-between our weather recording intervals... More about our weather records

Advertising

Melbourne weather history for previous 24 hours

 ConditionsComfort  
Time TempWeatherWind HumidityBarometerVisibility
9:30 PM
Sat, Aug 29
46 °FPartly cloudy.10 mph100%30.30 "Hg2 mi
9:00 PM46 °FPartly cloudy.8 mph100%30.27 "HgN/A
8:00 PM46 °FPassing clouds.14 mph100%30.27 "HgN/A
7:30 PM48 °FPassing clouds.13 mph87%30.27 "HgN/A
7:00 PM48 °FPartly cloudy.13 mph87%30.27 "HgN/A
6:00 PM48 °FPassing clouds.13 mph82%30.27 "HgN/A
5:00 PM50 °FPartly cloudy.15 mph82%30.27 "HgN/A
4:00 PM50 °FSprinkles. Broken clouds.20 mph76%30.24 "HgN/A
3:30 PM50 °FBroken clouds.13 mph82%30.24 "HgN/A
3:00 PM48 °FSprinkles. Broken clouds.14 mph87%30.27 "Hg3 mi
2:30 PM50 °FScattered showers. Broken clouds.17 mph82%30.27 "Hg5 mi
2:00 PM50 °FBroken clouds.17 mph76%30.27 "HgN/A
1:30 PM48 °FBroken clouds.17 mph87%30.27 "HgN/A
1:00 PM48 °FBroken clouds.16 mph82%30.27 "HgN/A
12:30 PM48 °FScattered showers. Broken clouds.17 mph87%30.30 "Hg5 mi
12:00 PM50 °FScattered showers. Broken clouds.20 mph71%30.30 "HgN/A
11:30 AM48 °FBroken clouds.16 mph82%30.30 "HgN/A
11:00 AM48 °FScattered showers. Broken clouds.16 mph71%30.30 "HgN/A
10:30 AM48 °FPartly sunny.15 mph71%30.33 "HgN/A
10:00 AM48 °FBroken clouds.12 mph66%30.33 "HgN/A
9:00 AM45 °FPartly sunny.14 mph71%30.33 "HgN/A
8:00 AM43 °FScattered clouds.9 mph76%30.33 "HgN/A
7:00 AM39 °FScattered clouds.10 mph81%30.30 "HgN/A
6:00 AM39 °FPartly sunny.3 mph87%30.30 "HgN/A
5:30 AM39 °FPassing clouds.6 mph81%30.30 "HgN/A
5:00 AM39 °FPassing clouds.6 mph81%30.30 "HgN/A
4:00 AM41 °FPassing clouds.8 mph87%30.27 "HgN/A
3:00 AM41 °FPassing clouds.7 mph93%30.30 "HgN/A
2:30 AM41 °FSprinkles. Partly cloudy.8 mph93%30.30 "Hg5 mi
2:00 AM41 °FPassing clouds.9 mph81%30.30 "HgN/A
1:30 AM43 °FPassing clouds.10 mph76%30.30 "HgN/A
1:00 AM43 °FSprinkles. Partly cloudy.13 mph71%30.30 "HgN/A
12:30 AM43 °FClear.14 mph66%30.30 "Hg10 mi
12:00 AM43 °FPassing clouds.13 mph66%30.30 "HgN/A
11:30 PM
Fri, Aug 28
41 °FPassing clouds.8 mph76%30.30 "HgN/A
11:00 PM41 °FPassing clouds.10 mph76%30.30 "HgN/A
Weather by CustomWeather, © 2015

See weather overviewHow to use our weather pages